Location: Bamobli
(6.6379°N, 10.9396°W)
Time: 13:16:34
(UTC+00:00)

X-37B - Visible Passes

Search period start: 08 March 2021 00:00
Search period end: 18 March 2021 00:00
Orbit: 383 x 391 km, 45.0° (Epoch: 27 February)

Date Brightness Start Highest point End Pass type
(mag) Time Alt. Az. Time Alt. Az. Time Alt. Az.
08 Mar 1.9 05:40:38 24° N 05:41:58 36° NE 05:44:54 10° ESE visible
09 Mar 2.1 06:18:15 14° W 06:20:06 21° SW 06:22:34 10° S visible
10 Mar 2.5 05:23:31 24° SSE 05:23:31 24° SSE 05:24:55 10° SE visible
